Weather History for Williamsburg, VA

Change the Weather History Date:

Friday, March 14, 2014

  Actual Average Record
Temperature  
Mean Temperature 43 °F -  
Max Temperature 62 °F 61 °F 87 °F (1990)
Min Temperature 24 °F 36 °F 15 °F (1960)
Degree Days  
Heating Degree Days 22    
Moisture  
Dew Point 20 °F    
Average Humidity 45    
Maximum Humidity 80    
Minimum Humidity 20    
Precipitation  
Precipitation 0.00 in - - ()
Sea Level Pressure  
Sea Level Pressure 30.21 in    
Wind  
Wind Speed 4 mph (SSW)    
Max Wind Speed 14 mph    
Max Gust Speed 23 mph    
Visibility 10 miles    
Events      
Averages and records for this station are not official NWS values.
T = Trace of Precipitation, MM = Missing Value Source: NWS Daily Summary

Daily Weather History Graph

Daily Weather History Graph

Search for Another Location

Airport:

Trip Planner

Search our weather history database for the weather conditions in past years. The results will help you decide how hot, cold, wet, or windy it might be!

Date:

Astronomy

Mar. 14, 2014 Rise Set
Actual Time 7:19 AM EDT 7:13 PM EDT
Civil Twilight 6:53 AM EDT 7:39 PM EDT
Nautical Twilight 6:23 AM EDT 8:09 PM EDT
Astronomical Twilight 5:52 AM EDT 8:39 PM EDT
Moon 5:34 PM EDT (3/14) 5:56 AM EDT (3/14)
Length of Visible Light 12h 45m
Length of Day
11h 53m
Waxing Gibbous, 96% of the Moon is Illuminated
Mar 14
Waxing Gibbous
Mar 16
Full
Mar 23
Last Quarter
Mar 30
New
Apr 7
First Quarter

Hourly Weather History & Observations

Time (EDT) Temp. Windchill Dew Point Humidity Pressure Visibility Wind Dir Wind Speed Gust Speed Precip Events Conditions
12:15 AM 28.4 °F - 17.6 °F 64% 30.23 in 10.0 mi Calm Calm - N/A   Clear
12:35 AM 28.4 °F - 17.6 °F 64% 30.23 in 10.0 mi Calm Calm - N/A   Clear
12:55 AM 28.4 °F - 15.8 °F 59% 30.24 in 10.0 mi Calm Calm - N/A   Clear
1:15 AM 26.6 °F - 15.8 °F 64% 30.24 in 10.0 mi Calm Calm - N/A   Clear
1:35 AM 26.6 °F - 15.8 °F 64% 30.25 in 10.0 mi Calm Calm - N/A   Clear
1:55 AM 26.6 °F - 17.6 °F 69% 30.25 in 10.0 mi Calm Calm - N/A   Clear
2:15 AM 26.6 °F - 19.4 °F 74% 30.25 in 10.0 mi Calm Calm - N/A   Clear
2:35 AM 26.6 °F - 19.4 °F 74% 30.26 in 10.0 mi Calm Calm - N/A   Clear
2:55 AM 26.6 °F - 19.4 °F 74% 30.25 in 10.0 mi Calm Calm - N/A   Clear
3:15 AM 26.6 °F - 19.4 °F 74% 30.25 in 10.0 mi Calm Calm - N/A   Clear
3:35 AM 26.6 °F - 19.4 °F 74% 30.25 in 10.0 mi Calm Calm - N/A   Clear
3:55 AM 26.6 °F - 19.4 °F 74% 30.26 in 10.0 mi Calm Calm - N/A   Clear
4:15 AM 26.6 °F - 19.4 °F 74% 30.26 in 10.0 mi Calm Calm - N/A   Clear
4:35 AM 26.6 °F - 19.4 °F 74% 30.26 in 10.0 mi Calm Calm - N/A   Clear
4:55 AM 26.6 °F - 19.4 °F 74% 30.26 in 10.0 mi Calm Calm - N/A   Clear
5:15 AM 26.6 °F - 19.4 °F 74% 30.27 in 10.0 mi Calm Calm - N/A   Clear
5:35 AM 24.8 °F - 19.4 °F 80% 30.28 in 10.0 mi Calm Calm - N/A   Clear
5:55 AM 24.8 °F - 19.4 °F 80% 30.28 in 10.0 mi Calm Calm - N/A   Clear
6:15 AM 24.8 °F - 19.4 °F 80% 30.28 in 10.0 mi Calm Calm - N/A   Clear
6:35 AM 24.8 °F - 19.4 °F 80% 30.28 in 10.0 mi Calm Calm - N/A   Clear
6:55 AM 24.8 °F - 19.4 °F 80% 30.29 in 10.0 mi Calm Calm - N/A   Clear
7:15 AM 26.6 °F 22.6 °F 19.4 °F 74% 30.30 in 10.0 mi SSW 3.5 mph - N/A   Clear
7:35 AM 26.6 °F 21.2 °F 21.2 °F 80% 30.30 in 10.0 mi South 4.6 mph - N/A   Clear
7:55 AM 26.6 °F 21.2 °F 21.2 °F 80% 30.31 in 10.0 mi South 4.6 mph - N/A   Clear
8:15 AM 32.0 °F 24.8 °F 17.6 °F 55% 30.32 in 10.0 mi South 8.1 mph - N/A   Scattered Clouds
8:35 AM 35.6 °F 31.7 °F 15.8 °F 44% 30.33 in 10.0 mi SSW 4.6 mph - N/A   Overcast
8:55 AM 35.6 °F 30.7 °F 15.8 °F 44% 30.33 in 10.0 mi SSW 5.8 mph - N/A   Overcast
9:15 AM 37.4 °F 31.4 °F 15.8 °F 41% 30.33 in 10.0 mi South 8.1 mph - N/A   Overcast
9:35 AM 37.4 °F 30.8 °F 15.8 °F 41% 30.33 in 10.0 mi South 9.2 mph - N/A   Overcast
9:55 AM 37.4 °F 32.1 °F 17.6 °F 45% 30.33 in 10.0 mi South 6.9 mph - N/A   Mostly Cloudy
10:15 AM 39.2 °F 34.2 °F 17.6 °F 42% 30.33 in 10.0 mi South 6.9 mph - N/A   Unknown
10:35 AM 42.8 °F 38.6 °F 17.6 °F 36% 30.33 in 10.0 mi South 6.9 mph - N/A   Unknown
10:55 AM 42.8 °F 37.5 °F 17.6 °F 36% 30.33 in 10.0 mi SSW 9.2 mph - N/A   Unknown
11:15 AM 44.6 °F 40.2 °F 17.6 °F 34% 30.32 in 10.0 mi South 8.1 mph - N/A   Clear
11:35 AM 48.2 °F - 17.6 °F 30% 30.31 in 10.0 mi South 9.2 mph 17.3 mph N/A   Clear
11:55 AM 50.0 °F - 17.6 °F 28% 30.30 in 10.0 mi South 9.2 mph - N/A   Clear
12:15 PM 50.0 °F - 17.6 °F 28% 30.29 in 10.0 mi SSE 10.4 mph - N/A   Clear
12:35 PM 51.8 °F - 19.4 °F 28% 30.29 in 10.0 mi South 6.9 mph - N/A   Clear
12:55 PM 53.6 °F - 19.4 °F 26% 30.28 in 10.0 mi South 12.7 mph - N/A   Clear
1:15 PM 53.6 °F - 17.6 °F 24% 30.27 in 10.0 mi SW 10.4 mph 20.7 mph N/A   Clear
1:35 PM 55.4 °F - 17.6 °F 23% 30.25 in 10.0 mi SSW 10.4 mph 16.1 mph N/A   Clear
1:55 PM 55.4 °F - 17.6 °F 23% 30.24 in 10.0 mi South 13.8 mph - N/A   Clear
2:15 PM 57.2 °F - 17.6 °F 21% 30.22 in 10.0 mi SSW 12.7 mph 18.4 mph N/A   Clear
2:35 PM 59.0 °F - 19.4 °F 22% 30.20 in 10.0 mi SSW 8.1 mph - N/A   Clear
2:55 PM 60.8 °F - 19.4 °F 20% 30.19 in 10.0 mi South 10.4 mph 18.4 mph N/A   Clear
3:15 PM 60.8 °F - 19.4 °F 20% 30.18 in 10.0 mi South 12.7 mph 17.3 mph N/A   Clear
3:35 PM 60.8 °F - 19.4 °F 20% 30.17 in 10.0 mi SSW 13.8 mph 18.4 mph N/A   Clear
3:55 PM 60.8 °F - 19.4 °F 20% 30.16 in 10.0 mi South 10.4 mph 17.3 mph N/A   Clear
4:15 PM 62.6 °F - 21.2 °F 20% 30.15 in 10.0 mi WSW 10.4 mph 21.9 mph N/A   Clear
4:35 PM 60.8 °F - 21.2 °F 22% 30.13 in 10.0 mi SW 13.8 mph 23.0 mph N/A   Clear
4:55 PM 60.8 °F - 21.2 °F 22% 30.12 in 10.0 mi SSW 13.8 mph 21.9 mph N/A   Clear
5:15 PM 60.8 °F - 21.2 °F 22% 30.11 in 10.0 mi SSW 11.5 mph 18.4 mph N/A   Clear
5:35 PM 60.8 °F - 21.2 °F 22% 30.10 in 10.0 mi SW 11.5 mph 19.6 mph N/A   Clear
5:55 PM 60.8 °F - 21.2 °F 22% 30.09 in 10.0 mi SSW 9.2 mph 19.6 mph N/A   Clear
6:15 PM 59.0 °F - 23.0 °F 25% 30.09 in 10.0 mi SSW 10.4 mph 18.4 mph N/A   Clear
6:35 PM 57.2 °F - 23.0 °F 27% 30.09 in 10.0 mi SSW 12.7 mph 21.9 mph N/A   Clear
6:55 PM 57.2 °F - 24.8 °F 29% 30.09 in 10.0 mi SSW 6.9 mph - N/A   Clear
7:15 PM 55.4 °F - 24.8 °F 31% 30.10 in 10.0 mi SW 6.9 mph - N/A   Clear
7:35 PM 55.4 °F - 23.0 °F 29% 30.09 in 10.0 mi SSW 5.8 mph - N/A   Clear
7:55 PM 55.4 °F - 24.8 °F 31% 30.10 in 10.0 mi SSW 9.2 mph - N/A   Clear
8:15 PM 55.4 °F - 24.8 °F 31% 30.09 in 10.0 mi SSW 6.9 mph - N/A   Clear
8:35 PM 53.6 °F - 24.8 °F 33% 30.09 in 10.0 mi SSW 6.9 mph - N/A   Clear
8:55 PM 53.6 °F - 24.8 °F 33% 30.09 in 10.0 mi South 9.2 mph - N/A   Clear
9:15 PM 53.6 °F - 24.8 °F 33% 30.09 in 10.0 mi South 8.1 mph - N/A   Clear
9:35 PM 53.6 °F - 24.8 °F 33% 30.07 in 10.0 mi South 8.1 mph - N/A   Clear
9:55 PM 53.6 °F - 24.8 °F 33% 30.08 in 10.0 mi South 9.2 mph - N/A   Clear
10:15 PM 51.8 °F - 26.6 °F 38% 30.07 in 10.0 mi South 11.5 mph - N/A   Clear
10:35 PM 53.6 °F - 26.6 °F 35% 30.06 in 10.0 mi SSW 10.4 mph 16.1 mph N/A   Clear
10:55 PM 53.6 °F - 28.4 °F 38% 30.06 in 10.0 mi SSW 11.5 mph 18.4 mph N/A   Clear
11:15 PM 53.6 °F - 28.4 °F 38% 30.05 in 10.0 mi SSW 9.2 mph 20.7 mph N/A   Clear
11:35 PM 53.6 °F - 28.4 °F 38% 30.05 in 10.0 mi SSW 11.5 mph 18.4 mph N/A   Clear
11:55 PM 53.6 °F - 28.4 °F 38% 30.04 in 10.0 mi SSW 12.7 mph 19.6 mph N/A   Clear